Location: *
(58.7167°N, 26.1833°E)
Time: 18:09:19
(UTC+00:00)

Okean 1-7 Rocket - Pass Details

Date: 25 August 2019
Orbit: 615 x 650 km, 82.5° (Epoch: 22 September)

Event Time Altitude Azimuth Distance (km) Brightness Sun altitude
Rises 20:40:56 0° 347° (NNW) 2,917 8.6 -18.0°
Reaches altitude 10° 20:43:12 10° 349° (N) 2,002 7.4 -18.1°
Maximum altitude 20:47:37 75° 75° (ENE) 646 3.5 -18.3°
Enters shadow 20:49:07 41° 152° (SSE) 906 3.9 -18.4°
